Location: Adamstown South Public School
(32.9318°S, 151.7012°E)
Time: 17:54:56
(UTC+00:00)

Centaur D AC-25 - Pass Details

Date: 07 June 2020
Orbit: 708 x 36377 km, 27.7° (Epoch: 04 July)

Event Time Altitude Azimuth Distance (km) Brightness Sun altitude
Rises 09:08:32 0° 261° (W) 13,732 10.0 -27.6°
Reaches altitude 10° 09:24:53 10° 264° (W) 8,118 8.5 -31.0°
Maximum altitude 09:41:04 44° 330° (NNW) 1,793 4.4 -34.4°
Enters shadow 09:42:14 40° 357° (N) 1,674 4.1 -34.6°
